Location: ??
(35.5052°N, 139.7262°E)
Time: 04:29:17
(UTC+00:00)

FENGYUN 1C DEB - Pass Details

Date: 29 January 2022
Orbit: 689 x 958 km, 98.4° (Epoch: 18 May)

Event Time Altitude Azimuth Distance (km) Brightness Sun altitude
Rises 20:19:25 0° 34° (NE) 3,646 ? -17.1°
Reaches altitude 10° 20:23:07 10° 56° (ENE) 2,688 ? -16.4°
Maximum altitude 20:26:29 15° 91° (E) 2,307 ? -15.7°
Drops below altitude 10° 20:29:47 10° 125° (SE) 2,636 ? -15.1°
Sets 20:33:19 0° 147° (SSE) 3,535 ? -14.4°
